Simultaneous Nadir Overpasses (SNOs) Predictions

Prediction of SNOs between AQUA and METOP-B Satellite Orbit:

Table of predicted SNOs for the next 14.0 days since TLE Epoch: 8/26/2016
Index Date (AQUA) Time (AQUA) Lat,Lon (AQUA) SZA (AQUA ) Date (METOP-B) Time (METOP-B) Lat,Lon (METOP-B) SZA (METOP-B ) Distance(km) Time Diff (sec)
1 08/27/2016 12:55:53 73.74, -19.63 63.96 08/27/2016 12:55:24 73.73, -19.57 63.95 2.48 29
2 08/27/2016 13:45:20 -73.80, 147.88 115.97 08/27/2016 13:46:05 -73.79, 147.91 115.98 1.36 45
3 08/30/2016 07:40:28 -73.09,-119.47 115.75 08/30/2016 07:39:21 -73.09,-121.95 115.66 80.16 67
4 08/30/2016 08:30:07 73.71, 46.88 64.92 08/30/2016 08:29:48 73.70, 46.77 64.92 3.28 19
5 08/30/2016 09:19:35 -73.82,-145.72 114.96 08/30/2016 09:20:28 -73.82,-145.63 114.97 2.80 53
6 09/02/2016 03:14:50 -73.43, -53.73 114.38 09/02/2016 03:13:39 -73.41, -54.83 114.36 35.00 71
7 09/02/2016 04:04:23 73.73, 113.26 65.96 09/02/2016 04:04:12 73.72, 113.23 65.95 1.40 11
8 09/02/2016 04:53:50 -73.79, -79.22 113.98 09/02/2016 04:54:53 -73.79, -79.29 113.98 2.11 63
9 09/04/2016 22:49:10 -73.67, 12.20 113.10 09/04/2016 22:47:58 -73.68, 12.20 113.08 1.78 72
10 09/04/2016 23:38:39 73.76, 179.63 67.02 09/04/2016 23:38:36 73.74, 179.68 67.00 2.81 3
11 09/05/2016 00:28:06 -73.82, -12.85 112.92 09/05/2016 00:29:17 -73.81, -12.83 112.93 0.76 71
12 09/07/2016 18:23:25 -73.70, 78.56 112.02 09/07/2016 18:22:21 -73.70, 78.65 112.02 2.74 64
13 09/07/2016 19:12:53 73.75,-113.90
